Location: Albany
(35.0000°S, 118.0000°E)
Time: 05:58:25
(UTC-04:00)

ADEOS Rocket - Visible Passes

Search period start: 30 June 2015 00:00
Search period end: 10 July 2015 00:00
Orbit: 860 x 1306 km, 98.7° (Epoch: 29 June)

Date Brightness Start Highest point End Pass type
(mag) Time Alt. Az. Time Alt. Az. Time Alt. Az.
30 Jun 3.9 07:52:11 35° NNW 07:52:11 35° NNW 07:55:18 10° NNW visible
30 Jun 4.8 17:54:40 10° NE 18:00:58 36° ESE 18:06:52 10° S visible
01 Jul 3.8 07:02:29 29° NE 07:02:29 29° NE 07:05:47 10° NNE visible
01 Jul 5.3 08:49:25 14° WNW 08:49:25 14° WNW 08:50:25 10° WNW visible
01 Jul 5.7 17:09:06 10° E 17:12:26 15° ESE 17:16:02 10° SSE visible
02 Jul 4.6 06:12:45 11° ENE 06:12:45 11° ENE 06:13:22 10° ENE visible
02 Jul 4.0 07:59:43 35° NW 07:59:43 35° NW 08:02:56 10° NNW visible
02 Jul 4.5 18:02:13 10° NE 18:08:42 41° ESE 18:14:42 10° S visible
03 Jul 3.5 07:09:59 35° NE 07:09:59 35° NE 07:13:44 10° N visible
03 Jul 5.5 08:56:55 13° WNW 08:56:55 13° WNW 08:57:39 10° WNW visible
03 Jul 5.6 17:16:09 10° ENE 17:20:07 17° ESE 17:24:13 10° SSE visible
04 Jul 4.4 06:20:15 14° ENE 06:20:15 14° ENE 06:22:14 10° NE visible
04 Jul 4.1 08:07:12 35° NW 08:07:12 35° NW 08:10:32 10° NNW visible
04 Jul 4.2 18:09:49 10° NE 18:16:25 47° ESE 18:22:30 10° S visible
05 Jul 3.3 07:17:28 43° NE 07:17:28 43° NE 07:21:39 10° N visible
05 Jul 5.6 09:04:24 11° W 09:04:24 11° W 09:04:46 10° WNW visible
05 Jul 5.5 17:23:19 10° ENE 17:27:47 20° ESE 17:32:17 10° SSE visible
06 Jul 4.2 06:27:43 18° ENE 06:27:43 18° ENE 06:30:45 10° NE visible
06 Jul 4.2 08:14:40 33° WNW 08:14:40 33° WNW 08:18:05 10° NW visible
06 Jul 4.0 18:17:27 10° NNE 18:24:09 55° ESE 18:30:16 10° S visible
07 Jul 3.1 07:24:55 52° NNE 07:24:55 52° NNE 07:29:30 10° N visible
07 Jul 5.3 17:30:34 10° ENE 17:35:28 23° ESE 17:40:16 10° SSE visible
08 Jul 4.0 06:35:10 22° ENE 06:35:10 22° ENE 06:39:05 10° NE visible
08 Jul 4.4 08:22:06 31° WNW 08:22:06 31° WNW 08:25:36 10° NW visible
08 Jul 3.7 18:25:09 10° NNE 18:31:52 64° ESE 18:38:00 10° S visible
09 Jul 2.9 07:32:21 63° NNE 07:32:21 63° NNE 07:37:19 10° N visible
09 Jul 5.1 17:37:56 10° ENE 17:43:09 26° ESE 17:48:11 10° SSE visible
